Terminal Aerodrome Forecast
Issued by NWS Green Bay, WI

Home | Current Version | Previous Version | Graphics & Text | Print | Product List | Glossary On
Versions: 1 2 3 4 5 6 7 8 9 10 11 12 13 14 15 16 17 18 19 20 21 22 23 24 25 26 27 28 29
735
FTUS43 KGRB 211137
TAFGRB
TAF
KGRB 211137Z 2112/2212 31011KT P6SM SCT025
      TEMPO 2112/2115 BKN025
     FM211500 35011KT P6SM BKN025
     FM211700 35011KT P6SM FEW030 SCT070
     FM212300 02008KT P6SM SKC=

USA.gov is the U.S. government's official web portal to all federal, state and local government web resources and services.